Location: Newark
(21.1200°N, 73.4000°E)
Time: 09:45:40
(UTC+00:00)

Vanguard 1 Rocket - Pass Details

Date: 17 January 2021
Orbit: 654 x 4223 km, 34.3° (Epoch: 07 March)

Event Time Altitude Azimuth Distance (km) Brightness Sun altitude
Rises 18:36:33 0° 258° (WSW) 6,319 11.8 -80.6°
Reaches altitude 10° 18:44:24 10° 234° (SW) 6,098 11.6 -82.4°
Maximum altitude 18:52:22 13° 210° (SSW) 6,418 11.6 -84.3°
Drops below altitude 10° 19:01:44 10° 187° (S) 7,207 11.9 -86.5°
Sets 19:13:58 0° 164° (SSE) 8,459 12.3 -89.2°
